STARLINK-2257, 47787

Orbit data source: Space-Track

STARLINK-2257, 47787 is a payload satellite owned by SpaceX/Seattle (US) in LEO that was launched on Thu, 11 Mar 2021 UTC via an FALCON 9 launch vehicle from the Air Force Eastern Test Range (AFETR). Payload-class satellites include a variety of spacecraft equipped with specific instruments for various scientific and technological missions. These include communications satellites like Starlink; space stations such as the ISS; scientific satellites like the Hubble; Earth observation satellites from companies like Planet Labs, Umbra, and HawkEye 360; GPS; miniature CubeSats for education and research; and military/defense satellites.

Loading next visibility...
Identifier
47787, 2021-018A
Orbit
LEO
Country
Flag of USUS
Related business
Manufacturer
SpaceX/Seattle
Mission
Operational Commercial Communications
Bus & Motor
STARLINK, Unknown motor
Mass
260 kg wet, ~248 kg dry
Launch date (UTC)
2021-03-11 (5 years ago)
Launch vehicle
FALCON 9
Launch site
Air Force Eastern Test Range (AFETR)
Object type
Payload
Rocket body
Debris
Shape & HBR
Box + 1 Pan, 10.1 m
Radar Cross Section
13.562 m², Large (>1 m²)

Expand to show TLE details & history
Last TLE update: 11 hours ago

TLE from 11 hours ago
0 STARLINK-2257
1 47787U 21018A   26119.99815153  .00001317  00000-0  56594-4 0  9990
2 47787  53.1623   7.0164 0001179  89.8968 270.2168 15.30183496284548
Epoch: 2026-04-29T23:57Z
TLE epoch observation values (Epoch: 2026-04-29T23:57:20.292Z)
Latitude
Longitude
149.73078°
Altitude
476.161 km
Speed
7.629 km/s
True Right ascension
00h 28m 03s
True Declination
0° 00' 00"
Sunlit
Object was in daylight at epoch
Visualization orbit readout
Latitude
Unknown
Longitude
Unknown
Altitude
Unknown
Speed
Unknown
Apparent Right ascension
Unknown
Apparent Declination
Unknown
Sunlit
N/A
Visualization observer readout
Local Sidereal Time
18:57:40
Azimuth
Unknown
Elevation
Unknown
Doppler factor
Unknown
Orbital elements
Apogee altitude
476.328 km
Perigee altitude
474.712 km
Semi-major axis
6,853.657 km
Eccentricity
0.00012
Inclination
53.1623°
RAAN
7.0164°
Arg. of periapsis
89.8968°
True anomaly
270.20329°
Mean anomaly
270.2168°
Eccentric anomaly
270.21004°
Mean motion
3.82525 °/min
Orbital period
94.11 mins
BSTAR
0.000056594
Loading maneuver chart data...
Computing Atmospheric mass density...
Loading historical data...
Loading historical data...
Loading historical data...
Loading historical data...
Loading historical data...
Loading historical data...
Loading historical data...

Documentation

Showing up to 5 results
|